Location: Tabor
(49.4170°N, 14.6670°E)
Time: 02:11:39
(UTC+01:00)

ISS - Visible Passes

Search period start: 19 November 2019 00:00
Search period end: 29 November 2019 00:00
Orbit: 412 x 421 km, 51.6° (Epoch: 19 November)

Date Brightness Start Highest point End Pass type
(mag) Time Alt. Az. Time Alt. Az. Time Alt. Az.
22 Nov -1.6 18:28:42 10° SSW 18:29:57 18° S 18:29:57 18° S visible
23 Nov -1.9 17:41:01 10° S 17:43:18 17° SE 17:43:43 17° SE visible
23 Nov -0.6 19:16:16 10° WSW 19:16:38 13° WSW 19:16:38 13° WSW visible
24 Nov -1.3 16:54:04 10° SSE 16:55:06 11° SE 16:56:09 10° ESE visible
24 Nov -2.6 18:27:57 10° SW 18:30:19 38° SSW 18:30:19 38° SSW visible
25 Nov -2.9 17:39:48 10° SW 17:42:53 35° SSE 17:43:56 28° ESE visible
25 Nov -0.6 19:16:10 10° W 19:16:51 15° W 19:16:51 15° W visible
26 Nov -2.2 16:51:50 10° SSW 16:54:35 24° SE 16:57:22 10° E visible
26 Nov -3.1 18:27:41 10° WSW 18:30:24 55° WSW 18:30:24 55° WSW visible
27 Nov -3.7 17:39:16 10° WSW 17:42:37 70° SSE 17:43:54 34° E visible
27 Nov -0.6 19:16:07 10° W 19:16:48 15° W 19:16:48 15° W visible
28 Nov -3.2 16:50:57 10° SW 16:54:11 49° SSE 16:57:22 11° ENE visible
28 Nov -2.9 18:27:35 10° W 18:30:16 48° WNW 18:30:16 48° WNW visible
